ORBCOMM-X 1 21576U 91050C 24109.14744651 .00001028 00000-0 32365-3 0 9997 2 21576 98.3932 177.3317 0004352 46.6181 313.5371 14.42444800721044 ORBCOMM FM 1 1 23545U 95017A 24109.26311712 .00013796 00000-0 18513-2 0 9996 2 23545 69.9688 45.0035 0008773 252.4606 107.5585 14.79431529549783 ORBCOMM FM 2 1 23546U 95017B 24109.28580805 .00016085 00000-0 21763-2 0 9995 2 23546 69.9693 64.3317 0010604 247.5237 112.4789 14.79021912549386 ORBCOMM FM 8 1 25112U 97084A 24108.47186022 .00005138 00000-0 15819-2 0 9997 2 25112 45.0133 246.0985 0008498 252.3066 107.6857 14.42346879379838 ORBCOMM FM 10 1 25113U 97084B 24109.44717189 .00004776 00000-0 14759-2 0 9999 2 25113 45.0142 243.2788 0006601 229.3400 130.6877 14.42278371380133 ORBCOMM FM 11 1 25114U 97084C 24109.46405123 .00004951 00000-0 15319-2 0 9992 2 25114 45.0126 243.2511 0007285 231.5021 128.5176 14.42158223380123 ORBCOMM FM 12 1 25115U 97084D 24109.49255233 .00004528 00000-0 14060-2 0 9993 2 25115 45.0133 242.8033 0006232 231.4275 128.6017 14.42119985380135 ORBCOMM FM 9 1 25116U 97084E 24109.50334273 .00004434 00000-0 13784-2 0 9996 2 25116 45.0136 243.4320 0007492 220.6316 139.3976 14.42088240380132 ORBCOMM FM 5 1 25117U 97084F 24108.47756163 .00004960 00000-0 15241-2 0 9992 2 25117 45.0138 246.6623 0003897 235.1226 124.9258 14.42507377379062 ORBCOMM FM 6 1 25118U 97084G 24109.49713264 .00005315 00000-0 16290-2 0 9991 2 25118 45.0130 241.9682 0003089 243.3745 227.6546 14.42540501380146 ORBCOMM FM 7 1 25119U 97084H 24109.46586765 .00004799 00000-0 14774-2 0 9993 2 25119 45.0121 242.6419 0004665 232.0600 127.9829 14.42462819380139 ORBCOMM FM 3 1 25158U 98007B 24109.51652050 .00002770 00000-0 10637-2 0 9990 2 25158 107.9753 344.7161 0048858 270.6322 88.9218 14.32052308363338 ORBCOMM FM 4 1 25159U 98007C 24109.50913271 .00002838 00000-0 10858-2 0 9995 2 25159 107.9733 347.6231 0044367 268.6067 90.9989 14.32307904363479 ORBCOMM FM 17 1 25413U 98046A 24109.39332574 .00002495 00000-0 95350-3 0 9999 2 25413 44.9941 99.2417 0003787 270.1092 89.9320 14.33024078342367 ORBCOMM FM 18 1 25414U 98046B 24108.17757371 .00004735 00000-0 16705-2 0 9996 2 25414 44.9945 32.5466 0005076 306.1533 53.8844 14.35744252342961 ORBCOMM FM 19 1 25415U 98046C 24107.95610674 .00004246 00000-0 15081-2 0 9999 2 25415 44.9955 34.9730 0003867 300.9286 182.4859 14.35574737342892 ORBCOMM FM 20 1 25416U 98046D 24107.92245633 .00002665 00000-0 97452-3 0 9992 2 25416 44.9962 36.6622 0001501 319.7366 40.3369 14.35089848342982 ORBCOMM FM 16 1 25417U 98046E 24109.35788497 .00003942 00000-0 13909-2 0 9995 2 25417 44.9955 25.8221 0004833 326.1849 33.8689 14.36034673343349 ORBCOMM FM 15 1 25418U 98046F 24107.91862027 .00003893 00000-0 13818-2 0 9992 2 25418 44.9984 36.6289 0004633 320.9279 39.1233 14.35755844342929 ORBCOMM FM 14 1 25419U 98046G 24108.18469267 .00004851 00000-0 17042-2 0 9990 2 25419 44.9974 34.5182 0003336 314.9744 200.1725 14.35917176342910 ORBCOMM FM 13 1 25420U 98046H 24107.91047852 .00003846 00000-0 13803-2 0 9998 2 25420 44.9985 40.5548 0005657 303.7254 56.3053 14.35219187341941 ORBCOMM FM 21 1 25475U 98053A 24108.41698518 .00002515 00000-0 92081-3 0 9991 2 25475 45.0076 122.4512 0002767 277.0807 82.9725 14.35172943336034 ORBCOMM FM 22 1 25476U 98053B 24109.09880681 .00003245 00000-0 11619-2 0 9999 2 25476 45.0065 116.6100 0004212 268.7348 91.3017 14.35679807336483 ORBCOMM FM 23 1 25477U 98053C 24108.86353448 .00002448 00000-0 89688-3 0 9996 2 25477 45.0075 122.7772 0003592 267.6648 92.3788 14.35210025336242 ORBCOMM FM 24 1 25478U 98053D 24108.86614892 .00002806 00000-0 10148-2 0 9992 2 25478 45.0074 121.7312 0003285 275.3017 84.7455 14.35508393336273 ORBCOMM FM 25 1 25479U 98053E 24108.41453244 .00003670 00000-0 13124-2 0 9993 2 25479 45.0059 122.1058 0005890 277.5878 82.4300 14.35489731336506 ORBCOMM FM 26 1 25480U 98053F 24109.38694315 .00002553 00000-0 93771-3 0 9994 2 25480 45.0062 111.5404 0007800 297.5101 62.4953 14.34957238336685 ORBCOMM FM 27 1 25481U 98053G 24108.95917999 .00003401 00000-0 12205-2 0 9998 2 25481 45.0043 119.7989 0001983 290.6124 69.4510 14.35473090336550 ORBCOMM FM 28 1 25482U 98053H 24108.95263664 .00003997 00000-0 14129-2 0 9999 2 25482 45.0062 58.3714 0005490 325.1750 34.8738 14.35920386337354 ORBCOMM FM 30 1 25980U 99065A 24109.49025541 .00002759 00000-0 10068-2 0 9999 2 25980 45.0318 296.5619 0005738 46.2173 313.9149 14.35105934273929 ORBCOMM FM 31 1 25981U 99065B 24109.45582380 .00002734 00000-0 99820-3 0 9992 2 25981 45.0231 290.4316 0003121 77.3403 282.7794 14.35109402273918 ORBCOMM FM 32 1 25982U 99065C 24108.51589591 .00002385 00000-0 89516-3 0 9993 2 25982 45.0164 308.5051 0005727 67.2347 292.9104 14.34073190273449 ORBCOMM FM 33 1 25983U 99065D 24109.38773845 .00003394 00000-0 11683-2 0 9997 2 25983 45.0276 214.7518 0007086 92.4174 17.6586 14.37550048274967 ORBCOMM FM 36 1 25984U 99065E 24108.95584564 .00003232 00000-0 11635-2 0 9996 2 25984 45.0400 301.9129 0002927 318.4763 41.5862 14.35419125273856 ORBCOMM FM 35 1 25985U 99065F 24107.94698455 .00002264 00000-0 83645-3 0 9995 2 25985 45.0403 309.2463 0003209 69.6043 290.5149 14.35022990273519 ORBCOMM FM 34 1 25986U 99065G 24109.51811468 .00002616 00000-0 95938-3 0 9991 2 25986 45.0394 302.3681 0003231 19.0817 341.0151 14.34994447273898 ORBCOMM FM 38 1 33060U 08031A 24108.97780565 .00005285 00000-0 76446-3 0 9996 2 33060 48.4400 175.4969 0005447 8.1599 351.9403 14.77327305851780 ORBCOMM FM 41 1 33061U 08031B 24109.44326035 .00004740 00000-0 69295-3 0 9997 2 33061 48.4436 179.8611 0004811 354.4818 101.7349 14.77063149851803 ORBCOMM FM 29 1 33062U 08031C 24108.35184866 .00006235 00000-0 90382-3 0 9993 2 33062 48.4384 193.0610 0006602 351.0791 124.5181 14.76979900851117 ORBCOMM FM 39 1 33063U 08031D 24109.49862030 .00004334 00000-0 65156-3 0 9995 2 33063 48.4397 207.9852 0007715 333.0524 26.9988 14.76018809851409 ORBCOMM FM 37 1 33064U 08031E 24109.48132793 .00004423 00000-0 66090-3 0 9998 2 33064 48.4396 197.3099 0006053 348.8781 105.1583 14.76248330851547 ORBCOMM FM 40 1 33065U 08031F 24108.48311569 .00004342 00000-0 63048-3 0 9998 2 33065 48.4415 191.6209 0007208 354.9940 101.5249 14.77526958851116 ORBCOMM FM 109 1 40086U 14040A 24109.41924532 .00002546 00000-0 60436-3 0 9992 2 40086 47.0029 219.9515 0002079 194.1950 165.8877 14.56488772519224 ORBCOMM FM 107 1 40087U 14040B 24109.45360870 .00002776 00000-0 65530-3 0 9991 2 40087 47.0035 220.7536 0001109 177.3720 182.7171 14.56494092519223 ORBCOMM FM 106 1 40088U 14040C 24108.85265053 .00003933 00000-0 72725-3 0 9992 2 40088 47.0600 78.3883 0018495 254.8300 105.0544 14.66875848520974 ORBCOMM FM 111 1 40089U 14040D 24108.90502292 .00005339 00000-0 69224-3 0 9990 2 40089 47.0047 341.8147 0033209 321.4822 38.3704 14.81547906527062 ORBCOMM FM 104 1 40090U 14040E 24109.47088145 .00001993 00000-0 49577-3 0 9992 2 40090 47.0045 249.3395 0016272 65.2287 295.0289 14.55038388518833 ORBCOMM FM 103 1 40091U 14040F 24109.40869219 .00002260 00000-0 54068-3 0 9994 2 40091 47.0050 221.3082 0001542 157.9649 202.1303 14.56478061519203 ORBCOMM FM 114 1 41179U 15081A 24108.48218638 .00001765 00000-0 43057-3 0 9993 2 41179 47.0014 134.9635 0001879 227.6216 132.4509 14.56483505442377 ORBCOMM FM 119 1 41180U 15081B 24107.56000469 .00002101 00000-0 50549-3 0 9993 2 41180 47.0021 48.4934 0001988 268.4003 91.6654 14.56456361443497 ORBCOMM FM 105 1 41181U 15081C 24108.09446151 .00001025 00000-0 34064-3 0 9993 2 41181 47.0033 10.7552 0002036 228.7727 131.2978 14.44321208439130 ORBCOMM FM 110 1 41182U 15081D 24108.87092198 .00001843 00000-0 44783-3 0 9995 2 41182 47.0004 132.5422 0001994 342.9383 17.1434 14.56485952442488 ORBCOMM FM 118 1 41183U 15081E 24109.46552773 .00001850 00000-0 44930-3 0 9994 2 41183 47.0026 130.0417 0002145 344.7205 15.3615 14.56487238442572 ORBCOMM FM 112 1 41184U 15081F 24108.22379861 .00002415 00000-0 57533-3 0 9994 2 41184 47.0003 44.5928 0001434 261.2454 98.8269 14.56471237443588 ORBCOMM FM 113 1 41185U 15081G 24108.95548249 .00002376 00000-0 56649-3 0 9996 2 41185 47.0023 41.4083 0001405 281.2708 78.8019 14.56473858443695 ORBCOMM FM 115 1 41186U 15081H 24109.40495983 .00002732 00000-0 59176-3 0 9998 2 41186 46.9982 256.8761 0001445 263.9215 96.1506 14.60567701445633 ORBCOMM FM 108 1 41187U 15081J 24109.52675567 .00002535 00000-0 60191-3 0 9990 2 41187 47.0047 309.9108 0002594 170.8348 189.2584 14.56474606444930 ORBCOMM FM 117 1 41188U 15081K 24107.98335634 .00002402 00000-0 57237-3 0 9997 2 41188 47.0011 316.0814 0003048 172.6823 187.4107 14.56472466444672 ORBCOMM FM 116 1 41189U 15081L 24108.17841539 .00002732 00000-0 64599-3 0 9991 2 41189 47.0031 44.9777 0002636 272.1406 87.9177 14.56457623443516